SCP
0 0 0 0 0 0 0 0 0 0 0 0 0 0 0 0 0 0 0 0 0 0
0 0 0 0 0 0 0 0 0 0 0 0 0 0 0 0 0 0 0 0 0 0
0 0 0 0 0 0 0 0 0 0 0 0 0 0 0 0 0 0 0 0 0 0
0 0 0 0 0 0 0 0 0 0 0 0 0 0 0 0 0 0 0 0 0 0
0 0 0 0 0 0 0 0 0 0 0 0 0 0 0 0 0 0 0 0 0 0
0 0 0 0 0 0 0 0 0 0 0 0 0 0 0 0 0 0 0 0 0 0
0 0 0 0 0 0 0 0 0 0 0 0 0 0 0 0 0 0 0 0 0 0
0 0 0 0 0 0 0 0 0 0 0 0 0 0 0 0 0 0 0 0 0 0
0 0 0 0 0 0 0 0 0 0 0 0 0 0 0 0 0 0 0 0 0 0
0 0 0 0 0 0 0 0 0 0 0 0 0 0 0 0 0 0 0 0 0 0
0 0 0 0 0 0 0 0 0 0 0 0 0 0 0 0 0 0 0 0 0 0
0 0 0 0 0 0 0 0 0 0 0 0 0 0 0 0 0 0 0 0 0 0
0 0 0 0 0 0 0 0 0 0 0 0 0 0 0 0 0 0 0 0 0 0
0 0 0 0 0 0 0 0 0 0 0 0 0 0 0 0 0 0 0 0 0 0
Wind_Speed_500mb
54 44 39 32 30 30 27 27 28 28 26 23 27 22 24 30 31 35 38 40 45 50
42 42 43 37 28 26 24 21 21 21 22 22 23 26 25 25 29 33 38 45 47 50
36 39 43 46 35 26 21 18 15 14 9 9 12 13 15 18 20 22 25 30 31 34
35 37 38 40 21 20 18 14 11 8 5 3 5 9 12 16 20 23 26 31 34 37
38 37 37 34 28 24 20 17 13 8 4 4 6 9 13 18 23 27 32 36 40 44
39 37 34 32 29 25 19 14 10 6 3 4 8 14 20 26 31 35 39 42 46 50
37 35 32 28 24 20 17 13 9 4 5 11 18 24 29 33 36 40 43 47 51 54
38 34 30 27 24 20 15 9 3 5 12 19 24 30 35 38 42 46 48 50 53 56
37 33 29 25 22 17 11 4 4 11 19 26 31 35 37 41 44 47 51 53 54 57
36 31 28 25 20 14 7 6 12 19 25 30 32 35 39 42 45 48 51 55 58 61
35 32 28 23 17 12 9 12 19 23 25 29 33 35 39 43 47 50 51 54 57 59
37 33 27 21 15 12 13 17 19 21 24 28 32 35 38 42 44 48 49 51 54 58
35 29 24 18 15 14 15 16 20 23 25 26 28 30 34 40 45 48 50 51 51 53
35 28 21 17 16 16 17 18 19 23 23 24 27 30 34 39 46 53 57 58 59 56
Wind_Direction_500mb
229 218 213 225 224 223 229 238 243 252 253 250 251 249 271 274 273 276 284 286 287 291
217 207 206 206 208 222 225 223 227 230 239 247 263 269 268 275 278 281 281 283 285 289
201 203 209 211 221 216 199 200 199 207 210 236 252 268 279 286 287 289 294 298 302 303
185 187 192 207 194 153 156 158 162 175 191 238 291 303 307 310 313 313 311 312 315 315
152 153 158 158 153 153 157 153 154 161 186 252 288 302 309 312 316 318 321 321 321 320
154 154 155 154 153 153 157 161 164 176 216 285 319 325 324 327 328 327 326 324 322 322
157 157 157 155 155 158 162 167 172 198 306 328 329 328 325 322 320 319 319 320 320 321
164 163 162 163 164 168 169 173 202 319 329 325 319 316 315 314 315 314 315 317 317 317
171 170 169 169 170 169 172 182 300 319 317 316 315 315 315 315 316 318 319 320 321 321
175 174 174 175 175 177 194 264 296 305 308 309 313 315 317 318 320 325 327 327 326 325
180 180 181 183 188 204 240 280 295 305 311 314 318 322 325 328 330 330 330 329 328 328
187 186 188 193 205 235 273 289 298 306 314 320 322 325 326 326 326 326 329 329 329 329
188 192 198 209 233 259 273 288 301 311 316 319 319 323 326 325 324 324 327 327 325 322
193 199 211 234 254 265 277 290 299 306 314 321 325 325 322 322 323 325 323 321 319 319
Wind_Speed_850mb
54 44 39 32 30 30 27 27 28 28 26 23 27 22 24 30 31 35 38 40 45 50
42 42 43 37 28 26 24 21 21 21 22 22 23 26 25 25 29 33 38 45 47 50
36 39 43 46 35 26 21 18 15 14 9 9 12 13 15 18 20 22 25 30 31 34
35 37 38 40 21 20 18 14 11 8 5 3 5 9 12 16 20 23 26 31 34 37
38 37 37 34 28 24 20 17 13 8 4 4 6 9 13 18 23 27 32 36 40 44
39 37 34 32 29 25 19 14 10 6 3 4 8 14 20 26 31 35 39 42 46 50
37 35 32 28 24 20 17 13 9 4 5 11 18 24 29 33 36 40 43 47 51 54
38 34 30 27 24 20 15 9 3 5 12 19 24 30 35 38 42 46 48 50 53 56
37 33 29 25 22 17 11 4 4 11 19 26 31 35 37 41 44 47 51 53 54 57
36 31 28 25 20 14 7 6 12 19 25 30 32 35 39 42 45 48 51 55 58 61
35 32 28 23 17 12 9 12 19 23 25 29 33 35 39 43 47 50 51 54 57 59
37 33 27 21 15 12 13 17 19 21 24 28 32 35 38 42 44 48 49 51 54 58
35 29 24 18 15 14 15 16 20 23 25 26 28 30 34 40 45 48 50 51 51 53
35 28 21 17 16 16 17 18 19 23 23 24 27 30 34 39 46 53 57 58 59 56
Wind_Direction_850mb
229 218 213 225 224 223 229 238 243 252 253 250 251 249 271 274 273 276 284 286 287 291
217 207 206 206 208 222 225 223 227 230 239 247 263 269 268 275 278 281 281 283 285 289
201 203 209 211 221 216 199 200 199 207 210 236 252 268 279 286 287 289 294 298 302 303
185 187 192 207 194 153 156 158 162 175 191 238 291 303 307 310 313 313 311 312 315 315
152 153 158 158 153 153 157 153 154 161 186 252 288 302 309 312 316 318 321 321 321 320
154 154 155 154 153 153 157 161 164 176 216 285 319 325 324 327 328 327 326 324 322 322
157 157 157 155 155 158 162 167 172 198 306 328 329 328 325 322 320 319 319 320 320 321
164 163 162 163 164 168 169 173 202 319 329 325 319 316 315 314 315 314 315 317 317 317
171 170 169 169 170 169 172 182 300 319 317 316 315 315 315 315 316 318 319 320 321 321
175 174 174 175 175 177 194 264 296 305 308 309 313 315 317 318 320 325 327 327 326 325
180 180 181 183 188 204 240 280 295 305 311 314 318 322 325 328 330 330 330 329 328 328
187 186 188 193 205 235 273 289 298 306 314 320 322 325 326 326 326 326 329 329 329 329
188 192 198 209 233 259 273 288 301 311 316 319 319 323 326 325 324 324 327 327 325 322
193 199 211 234 254 265 277 290 299 306 314 321 325 325 322 322 323 325 323 321 319 319